TimeCDT,TemperatureF,Dew PointF,Humidity,Sea Level PressureIn,VisibilityMPH,Wind Direction,Wind SpeedMPH,Gust SpeedMPH,PrecipitationIn,Events,Conditions,WindDirDegrees,DateUTC
1:53 AM,62.1,53.1,72,30.01,10.0,South,8.1,-,N/A,,Clear,180,2012-10-23 06:53:00
2:53 AM,57.0,52.0,83,30.02,10.0,South,5.8,-,N/A,,Clear,170,2012-10-23 07:53:00
3:53 AM,57.0,52.0,83,30.02,10.0,South,5.8,-,N/A,,Clear,180,2012-10-23 08:53:00
4:53 AM,55.9,51.1,84,30.03,10.0,South,4.6,-,N/A,,Clear,180,2012-10-23 09:53:00
5:53 AM,57.0,52.0,83,30.04,10.0,South,4.6,-,N/A,,Clear,180,2012-10-23 10:53:00
6:53 AM,57.9,53.1,84,30.05,10.0,South,5.8,-,N/A,,Clear,180,2012-10-23 11:53:00
7:53 AM,60.1,54.0,80,30.06,10.0,South,6.9,-,N/A,,Clear,180,2012-10-23 12:53:00
9:53 AM,69.1,59.0,70,30.08,10.0,SSW,8.1,-,N/A,,Clear,200,2012-10-23 14:53:00
10:53 AM,75.0,61.0,62,30.07,10.0,SSW,10.4,-,N/A,,Mostly Cloudy,200,2012-10-23 15:53:00
12:53 PM,78.1,55.0,45,30.04,10.0,South,17.3,24.2,N/A,,Clear,190,2012-10-23 17:53:00
1:53 PM,79.0,55.0,44,30.01,10.0,SSW,10.4,20.7,N/A,,Clear,200,2012-10-23 18:53:00
2:53 PM,80.1,53.1,39,29.99,10.0,South,17.3,20.7,N/A,,Clear,180,2012-10-23 19:53:00
3:53 PM,80.1,51.1,36,29.98,10.0,South,13.8,-,N/A,,Clear,180,2012-10-23 20:53:00
4:53 PM,79.0,52.0,39,29.97,10.0,South,12.7,-,N/A,,Clear,190,2012-10-23 21:53:00
5:53 PM,73.9,54.0,50,29.98,10.0,South,9.2,-,N/A,,Clear,180,2012-10-23 22:53:00
6:53 PM,66.0,54.0,65,29.99,10.0,South,6.9,-,N/A,,Clear,180,2012-10-23 23:53:00
7:53 PM,64.0,53.1,67,29.99,10.0,South,5.8,-,N/A,,Clear,180,2012-10-24 00:53:00
8:53 PM,62.1,53.1,72,30.00,10.0,South,6.9,-,N/A,,Clear,170,2012-10-24 01:53:00
9:53 PM,62.1,54.0,75,30.00,10.0,South,8.1,-,N/A,,Clear,180,2012-10-24 02:53:00
10:53 PM,60.1,53.1,78,30.01,10.0,South,4.6,-,N/A,,Clear,180,2012-10-24 03:53:00
11:53 PM,60.1,54.0,80,30.01,10.0,SSE,3.5,-,N/A,,Clear,150,2012-10-24 04:53:00